Showing default

ATS 1, 2608

Orbit data source: Space-Track

ATS 1, 2608 is a payload satellite owned by GSFC (US) in GEO that was launched on Wed, 07 Dec 1966 UTC via an ATLAS SLV-3 AGENA D launch vehicle from the Air Force Eastern Test Range (AFETR). Payloads include a variety of satellites, spacecraft, and rockets equipped with specific instruments for various scientific and technological missions. These include communications satellites like Starlink; space stations such as the ISS; scientific satellites like the Hubble; Earth observation satellites from companies like Planet Labs, Umbra, and HawkEye 360; GPS; miniature CubeSats for education and research; and military/defense satellites.

Not visible in the next 10 days
ATS 1 details
Identifier
2608, 1966-110A
Orbit
GEO
Last TLE update13 hours ago
Origin
Flag of USGSFC (US)
ManufacturerHughes
MissionNon-operational Civil Communications
Bus & MotorHS-306, SR-28-3
Mass714 kg wet, 266 kg dry
Launch date (UTC)
1966-12-07 (58 years ago)
Launch vehicle
ATLAS SLV-3 AGENA D
Launch site
Air Force Eastern Test Range (AFETR)
Object type
Payload
Rocket body
Debris
Shape & HBRCyl + 2 Rod, 2.5 m
Radar Cross Section2.651 m², Large (>1 m²)

Expand to show TLE details & history

TLE from 13 hours ago
0 ATS 1
1  2608U 66110A   24356.09736876 -.00000042  00000-0  00000+0 0  9992
2  2608   3.6088  74.7591 0006833 173.0793 230.2383  1.00315683129343
Epoch: 2024-12-21T02:20Z
Definitive object data (Epoch: 2024-12-21T02:20:12.66Z)
Latitude2.49321°
Longitude-7.24137°
Altitude35,792.05 km
Speed3.074 km/s
True Right ascension07h 51m 51s
True Declination2° 29' 26"
Sunlit
Object was in daylight at TLE epoch
Visualization TLE readout
Latitude-3.0176°
Longitude-174.32543°
Altitude35,761.066 km
Speed3.076 km/s
Apparent Right ascension21h 09m 23s
Apparent Declination-8° 18' 35"
Sunlit
Object is in daylight
Visualization observer readout
Local Sidereal Time14:11:08
Azimuth87.081° E
Elevation-16.475°
Doppler factor1
Orbital elements
Apogee altitude35,804.161 km
Perigee altitude35,746.554 km
Semi-major axis42,153.495 km
Eccentricity0.0006833
Inclination3.6088°
RAAN74.7591°
Arg. of periapsis173.0793°
True anomaly230.17814°
Mean anomaly230.2383°
Eccentric anomaly230.20822°
Mean motion0.25078 °/min
BSTARUnknown
Orbital period1435.52 mins
Loading historical data...
2608 neighbors
Authenticating...
Loading maneuver chart data...
Loading historical data...
Loading historical data...
Loading historical data...
Loading historical data...
Loading historical data...
Loading historical data...
Loading historical data...
Other satellites on launch #110 in the year 1966 (1966-12-07 UTC)

ATS 1 Visibility forecast

Observer location: undefined°, undefined

ATS 1 is not visible in the next 10 days
Span
Click to sort rows by Start time (UTC) header in descending order
Start Az.
Max El. time (UTC)
Max El. Az.
Max El.
End time (UTC)
End Az.
|